| time (UTC) | temp F | wind direction | speed MPH | gust MPH | rain 1hr in | rain 24hr in | rain mn in | humidity % | barometer mb |
| 20260502205312 | 84 | 244 | 5.0 | 5.0 | 0.00 | 0.00 | 0.00 | 44 | 1009.0 |
| 20260502204311 | 84 | 244 | 5.0 | 5.0 | 0.00 | 0.00 | 0.00 | 44 | 1009.0 |
| 20260502203311 | 84 | 244 | 5.0 | 5.0 | 0.00 | 0.00 | 0.00 | 44 | 1009.0 |
| 20260502202310 | 84 | 244 | 5.0 | 5.0 | 0.00 | 0.00 | 0.00 | 44 | 1009.0 |
| 20260502201310 | 84 | 244 | 5.0 | 5.0 | 0.00 | 0.00 | 0.00 | 44 | 1009.0 |
| 20260502200310 | 84 | 244 | 5.0 | 5.0 | 0.00 | 0.00 | 0.00 | 44 | 1009.0 |
| 20260502195310 | 84 | 244 | 6.0 | 6.0 | 0.00 | 0.00 | 0.00 | 44 | 1009.0 |
| 20260502194309 | 83 | 244 | 6.0 | 6.0 | 0.00 | 0.00 | 0.00 | 44 | 1009.0 |
| 20260502193309 | 83 | 244 | 6.0 | 6.0 | 0.00 | 0.00 | 0.00 | 44 | 1009.0 |
| 20260502192309 | 82 | 237 | 6.0 | 8.0 | 0.00 | 0.00 | 0.00 | 44 | 1010.0 |
| 20260502191309 | 83 | 237 | 6.0 | 8.0 | 0.00 | 0.00 | 0.00 | 44 | 1010.0 |
| 20260502190308 | 83 | 237 | 6.0 | 8.0 | 0.00 | 0.00 | 0.00 | 44 | 1010.0 |
| 20260502185308 | 82 | 237 | 6.0 | 8.0 | 0.00 | 0.00 | 0.00 | 44 | 1010.0 |
| 20260502184308 | 82 | 237 | 6.0 | 8.0 | 0.00 | 0.00 | 0.00 | 45 | 1010.0 |
| 20260502183307 | 82 | 237 | 6.0 | 8.0 | 0.00 | 0.00 | 0.00 | 45 | 1010.0 |
| 20260502182307 | 80 | 217 | 5.0 | 7.0 | 0.00 | 0.00 | 0.00 | 47 | 1011.0 |
| 20260502181307 | 80 | 217 | 5.0 | 7.0 | 0.00 | 0.00 | 0.00 | 47 | 1011.0 |
| 20260502180307 | 80 | 217 | 5.0 | 7.0 | 0.00 | 0.00 | 0.00 | 47 | 1011.0 |
| 20260502170305 | 79 | 208 | 4.0 | 5.0 | 0.00 | 0.00 | 0.00 | 52 | 1012.0 |
| 20260502164304 | 78 | 208 | 4.0 | 5.0 | 0.00 | 0.00 | 0.00 | 53 | 1012.0 |
| 20260502163304 | 78 | 208 | 4.0 | 5.0 | 0.00 | 0.00 | 0.00 | 53 | 1012.0 |
| 20260502162304 | 77 | 204 | 2.0 | 5.0 | 0.00 | 0.00 | 0.00 | 55 | 1013.0 |
| 20260502161303 | 77 | 204 | 2.0 | 5.0 | 0.00 | 0.00 | 0.00 | 55 | 1013.0 |
| 20260502160303 | 77 | 204 | 2.0 | 5.0 | 0.00 | 0.00 | 0.00 | 55 | 1013.0 |
| 20260502152305 | 77 | 254 | 0.0 | 4.0 | 0.00 | 0.00 | 0.00 | 61 | 1013.0 |
| 20260502151301 | 76 | 254 | 0.0 | 4.0 | 0.00 | 0.00 | 0.00 | 60 | 1013.0 |
| 20260502150301 | 76 | 254 | 0.0 | 4.0 | 0.00 | 0.00 | 0.00 | 59 | 1013.0 |
| 20260502130258 | 75 | 299 | 1.0 | 1.0 | 0.00 | 0.00 | 0.00 | 54 | 1013.0 |
| 20260502123257 | 75 | 299 | 1.0 | 1.0 | 0.00 | 0.00 | 0.00 | 54 | 1013.0 |
| 20260502122256 | 75 | 299 | 1.0 | 1.0 | 0.00 | 0.00 | 0.00 | 54 | 1012.0 |
| 20260502121256 | 75 | 299 | 1.0 | 1.0 | 0.00 | 0.00 | 0.00 | 54 | 1012.0 |
| 20260502120255 | 75 | 299 | 1.0 | 1.0 | 0.00 | 0.00 | 0.00 | 54 | 1012.0 |
| 20260502115255 | 75 | 299 | 1.0 | 1.0 | 0.00 | 0.00 | 0.00 | 54 | 1012.0 |
| 20260502114255 | 75 | 299 | 1.0 | 1.0 | 0.00 | 0.00 | 0.00 | 54 | 1012.0 |
| 20260502113254 | 75 | 299 | 1.0 | 1.0 | 0.00 | 0.00 | 0.00 | 54 | 1012.0 |
| 20260502112254 | 75 | 299 | 1.0 | 1.0 | 0.00 | 0.00 | 0.00 | 54 | 1012.0 |
| 20260502111254 | 75 | 299 | 1.0 | 1.0 | 0.00 | 0.00 | 0.00 | 54 | 1012.0 |
| 20260502110254 | 75 | 299 | 1.0 | 1.0 | 0.00 | 0.00 | 0.00 | 54 | 1012.0 |
| 20260502105253 | 75 | 299 | 1.0 | 1.0 | 0.00 | 0.00 | 0.00 | 54 | 1012.0 |
| 20260502104253 | 75 | 299 | 1.0 | 1.0 | 0.00 | 0.00 | 0.00 | 54 | 1012.0 |
| 20260502103252 | 75 | 299 | 1.0 | 1.0 | 0.00 | 0.00 | 0.00 | 54 | 1012.0 |
| 20260502102252 | 75 | 299 | 1.0 | 1.0 | 0.00 | 0.00 | 0.00 | 54 | 1011.0 |
| 20260502101252 | 75 | 299 | 1.0 | 1.0 | 0.00 | 0.00 | 0.00 | 54 | 1011.0 |
| 20260502100251 | 75 | 299 | 1.0 | 1.0 | 0.00 | 0.00 | 0.00 | 54 | 1011.0 |
| 20260502091250 | 75 | 299 | 1.0 | 1.0 | 0.00 | 0.00 | 0.00 | 54 | 1011.0 |
| 20260502090250 | 75 | 299 | 1.0 | 1.0 | 0.00 | 0.00 | 0.00 | 54 | 1011.0 |
| 20260502071246 | 75 | 299 | 1.0 | 1.0 | 0.00 | 0.00 | 0.00 | 54 | 1012.0 |
| 20260502070246 | 75 | 299 | 1.0 | 1.0 | 0.00 | 0.00 | 0.00 | 54 | 1012.0 |
| 20260502065246 | 75 | 299 | 1.0 | 1.0 | 0.00 | 0.00 | 0.00 | 54 | 1012.0 |
| 20260502064245 | 75 | 299 | 1.0 | 1.0 | 0.00 | 0.00 | 0.00 | 54 | 1012.0 |
| 20260502063245 | 75 | 299 | 1.0 | 1.0 | 0.00 | 0.00 | 0.00 | 54 | 1012.0 |
| 20260502062244 | 75 | 299 | 1.0 | 1.0 | 0.00 | 0.00 | 0.00 | 54 | 1012.0 |
| 20260502061244 | 75 | 299 | 1.0 | 1.0 | 0.00 | 0.00 | 0.00 | 54 | 1012.0 |
| 20260502060244 | 75 | 299 | 1.0 | 1.0 | 0.00 | 0.00 | 0.00 | 54 | 1012.0 |
| 20260502055243 | 75 | 299 | 1.0 | 1.0 | 0.00 | 0.00 | 0.00 | 54 | 1012.0 |
| 20260502054243 | 75 | 299 | 1.0 | 1.0 | 0.00 | 0.00 | 0.00 | 54 | 1012.0 |
| 20260502053243 | 75 | 299 | 1.0 | 1.0 | 0.00 | 0.00 | 0.00 | 54 | 1012.0 |
| 20260502052243 | 75 | 299 | 1.0 | 1.0 | 0.00 | 0.00 | 0.00 | 54 | 1012.0 |
| 20260502051243 | 75 | 299 | 1.0 | 1.0 | 0.00 | 0.00 | 0.00 | 54 | 1012.0 |
| 20260502050242 | 75 | 299 | 1.0 | 1.0 | 0.00 | 0.00 | 0.00 | 54 | 1012.0 |
| 20260502045242 | 75 | 299 | 1.0 | 1.0 | 0.00 | 0.00 | 0.00 | 54 | 1012.0 |
| 20260502044242 | 75 | 299 | 1.0 | 1.0 | 0.00 | 0.00 | 0.00 | 54 | 1012.0 |
| 20260502043241 | 75 | 299 | 1.0 | 1.0 | 0.00 | 0.00 | 0.00 | 54 | 1012.0 |
| 20260502042241 | 75 | 299 | 1.0 | 1.0 | 0.00 | 0.00 | 0.00 | 54 | 1012.0 |
| 20260502041241 | 75 | 299 | 1.0 | 1.0 | 0.00 | 0.00 | 0.00 | 54 | 1012.0 |
| 20260502040240 | 75 | 299 | 1.0 | 1.0 | 0.00 | 0.00 | 0.00 | 54 | 1012.0 |
| 20260502035240 | 75 | 299 | 1.0 | 1.0 | 0.00 | 0.00 | 0.00 | 54 | 1012.0 |
| 20260502034240 | 75 | 299 | 1.0 | 1.0 | 0.00 | 0.00 | 0.00 | 54 | 1012.0 |
| 20260502033239 | 75 | 299 | 1.0 | 1.0 | 0.00 | 0.00 | 0.00 | 54 | 1012.0 |
| 20260502032239 | 75 | 299 | 1.0 | 1.0 | 0.00 | 0.00 | 0.00 | 54 | 1011.0 |
| 20260502031239 | 75 | 299 | 1.0 | 1.0 | 0.00 | 0.00 | 0.00 | 54 | 1011.0 |
| 20260502030238 | 75 | 299 | 1.0 | 1.0 | 0.00 | 0.00 | 0.00 | 54 | 1011.0 |
| 20260502025238 | 75 | 299 | 1.0 | 1.0 | 0.00 | 0.00 | 0.00 | 54 | 1011.0 |
| 20260502024238 | 76 | 299 | 1.0 | 1.0 | 0.00 | 0.00 | 0.00 | 54 | 1011.0 |
| 20260502023238 | 82 | 304 | 3.0 | 1.0 | 0.00 | 0.00 | 0.00 | 37 | 1011.0 |
| 20260502022237 | 82 | 304 | 3.0 | 1.0 | 0.00 | 0.00 | 0.00 | 37 | 1010.0 |
| 20260502021237 | 82 | 304 | 3.0 | 1.0 | 0.00 | 0.00 | 0.00 | 37 | 1010.0 |
| 20260502020237 | 82 | 304 | 3.0 | 1.0 | 0.00 | 0.00 | 0.00 | 37 | 1010.0 |
| 20260502015237 | 82 | 304 | 3.0 | 1.0 | 0.00 | 0.00 | 0.00 | 37 | 1010.0 |
| 20260502014236 | 82 | 304 | 3.0 | 1.0 | 0.00 | 0.00 | 0.00 | 37 | 1010.0 |
| 20260502013236 | 82 | 304 | 3.0 | 1.0 | 0.00 | 0.00 | 0.00 | 37 | 1010.0 |
| 20260502012236 | 82 | 304 | 3.0 | 1.0 | 0.00 | 0.00 | 0.00 | 37 | 1009.0 |
| 20260502011235 | 82 | 304 | 3.0 | 1.0 | 0.00 | 0.00 | 0.00 | 37 | 1009.0 |
| 20260502010235 | 82 | 304 | 3.0 | 1.0 | 0.00 | 0.00 | 0.00 | 37 | 1009.0 |
| 20260502005235 | 82 | 304 | 3.0 | 1.0 | 0.00 | 0.00 | 0.00 | 37 | 1009.0 |
| 20260502004234 | 82 | 304 | 3.0 | 1.0 | 0.00 | 0.00 | 0.00 | 37 | 1009.0 |
| 20260502003234 | 82 | 304 | 3.0 | 1.0 | 0.00 | 0.00 | 0.00 | 37 | 1009.0 |
| 20260502002234 | 82 | 304 | 3.0 | 1.0 | 0.00 | 0.00 | 0.00 | 37 | 1008.0 |
| 20260502001233 | 82 | 304 | 3.0 | 1.0 | 0.00 | 0.00 | 0.00 | 37 | 1008.0 |
| 20260502000233 | 82 | 304 | 3.0 | 1.0 | 0.00 | 0.00 | 0.00 | 37 | 1008.0 |
| 20260501235233 | 82 | 304 | 3.0 | 1.0 | 0.00 | 0.00 | 0.00 | 37 | 1008.0 |
| 20260501234232 | 82 | 304 | 3.0 | 1.0 | 0.00 | 0.00 | 0.00 | 37 | 1008.0 |
| 20260501233232 | 82 | 304 | 3.0 | 1.0 | 0.00 | 0.00 | 0.00 | 37 | 1008.0 |
| 20260501232232 | 82 | 304 | 3.0 | 1.0 | 0.00 | 0.00 | 0.00 | 37 | 1007.0 |
| 20260501231231 | 82 | 304 | 3.0 | 1.0 | 0.00 | 0.00 | 0.00 | 37 | 1007.0 |
| 20260501230231 | 82 | 304 | 3.0 | 1.0 | 0.00 | 0.00 | 0.00 | 37 | 1007.0 |
| 20260501225231 | 82 | 304 | 3.0 | 1.0 | 0.00 | 0.00 | 0.00 | 37 | 1007.0 |
| 20260501224231 | 82 | 304 | 3.0 | 1.0 | 0.00 | 0.00 | 0.00 | 37 | 1007.0 |
| 20260501223230 | 82 | 304 | 3.0 | 1.0 | 0.00 | 0.00 | 0.00 | 37 | 1007.0 |
| 20260501222230 | 82 | 304 | 3.0 | 1.0 | 0.00 | 0.00 | 0.00 | 37 | 1007.0 |
| 20260501221230 | 82 | 304 | 3.0 | 1.0 | 0.00 | 0.00 | 0.00 | 37 | 1007.0 |
| 20260501220229 | 82 | 304 | 3.0 | 1.0 | 0.00 | 0.00 | 0.00 | 37 | 1007.0 |
| 20260501215229 | 82 | 304 | 3.0 | 1.0 | 0.00 | 0.00 | 0.00 | 37 | 1007.0 |
| 20260501214229 | 82 | 304 | 3.0 | 2.0 | 0.00 | 0.00 | 0.00 | 37 | 1007.0 |
| 20260501213229 | 82 | 304 | 3.0 | 2.0 | 0.00 | 0.00 | 0.00 | 37 | 1007.0 |
| 20260501212228 | 83 | 172 | 1.0 | 3.0 | 0.00 | 0.00 | 0.00 | 36 | 1007.0 |
| 20260501211228 | 83 | 172 | 1.0 | 3.0 | 0.00 | 0.00 | 0.00 | 36 | 1007.0 |
| 20260501210228 | 83 | 172 | 1.0 | 3.0 | 0.00 | 0.00 | 0.00 | 35 | 1007.0 |